Regional Weather Roundup
Issued by NWS Little Rock, AR

Home | Current Version | Previous Version | Text Only | Print | Product List | Glossary On
Versions: 1 2 3 4 5 6 7 8 9 10 11 12 13 14 15 16 17 18 19 20 21 22 23 24 25 26 27 28 29 30 31 32
000
ASUS44 KLZK 170705
RWRLZK

WEATHER ROUNDUP FOR ARKANSAS
NATIONAL WEATHER SERVICE LITTLE ROCK AR
100 AM CST WED JAN 17 2018

NOTE: "FAIR" INDICATES FEW OR NO CLOUDS BELOW 12,000 FEET WITH NO
SIGNIFICANT WEATHER AND/OR OBSTRUCTIONS TO VISIBILITY.

ARZ001-003-010-029-170800-
NORTHWEST ARKANSAS

CITY           SKY/WX    TMP DP  RH WIND       PRES   REMARKS
FAYETTEVILLE   CLEAR      1  -2  87 CALM      30.69F
FORT SMITH     CLEAR      9   0  67 NW3       30.77F
HARRISON       CLOUDY     2  -2  83 W5        30.66F WCI  -8
BENTONVILLE    CLOUDY     1  -2  87 CALM      30.70F
ROGERS         CLOUDY     1  -4  79 SW3       30.68F
SILOAM SPGS    CLEAR      2  -1  88 CALM      30.70F
HIGHFILL       CLEAR      2  -2  83 CALM      30.69F
$$

ARZ004-005-016-170800-
NORTH CENTRAL ARKANSAS

CITY           SKY/WX    TMP DP  RH WIND       PRES   REMARKS
BATESVILLE     FAIR       7   1  76 NW7       30.73S WCI  -5
FLIPPIN        PTCLDY     2  -2  83 SW6       30.73F WCI  -9
MTN HOME       CLOUDY     0  -1  96 CALM      30.68F
$$

ARZ040-041-170800-
WEST CENTRAL ARKANSAS

CITY           SKY/WX    TMP DP  RH WIND       PRES   REMARKS
MENA           CLEAR     10   3  72 CALM      30.68S
MOUNT IDA      CLEAR      9   1  70 NW3       30.69R
$$

ARZ009-017-025-026-028-170800-
NORTHEAST ARKANSAS

CITY           SKY/WX    TMP DP  RH WIND       PRES   REMARKS
JONESBORO      FAIR      10   2  69 NW6       30.71S WCI   0
NEWPORT        FAIR       9   1  70 NW16      30.74S WCI  -8
WALNUT RIDGE   FAIR       7   1  76 NW8       30.73S WCI  -6
BLYTHEVILLE    FAIR       0  -3  87 N10       30.70F WCI -16
$$

ARZ022-023-033-042-044-170800-
CENTRAL ARKANSAS

CITY           SKY/WX    TMP DP  RH WIND       PRES   REMARKS
LITTLE ROCK    FAIR       9   2  73 N8        30.75S WCI  -3
N LITTLE ROCK    N/A      8   1  72 CALM      30.79S
JACKSONVILLE   FAIR       8   1  72 NW3       30.73S
SEARCY         FAIR       8   2  76 N7        30.75S WCI  -3
HOT SPRINGS    FAIR      14   2  58 W3        30.72R
RUSSELLVILLE   CLEAR     10   1  67 N7        30.75R WCI  -1
CLINTON        FAIR       7   0  72 VRB5G12   30.74S WCI  -2
$$

ARZ036-170800-
EAST ARKANSAS

CITY           SKY/WX    TMP DP  RH WIND       PRES   REMARKS
WEST MEMPHIS   FAIR       9   4  80 N5        30.70S WCI   1
$$

ARZ050-053-066-070-073-170800-
SOUTHWEST ARKANSAS

CITY           SKY/WX    TMP DP  RH WIND       PRES   REMARKS
ARKADELPHIA    FAIR      10   1  67 CALM      30.76
CAMDEN         FAIR       7   1  78 CALM      30.75R
TEXARKANA      FAIR      12   2  64 N5        30.73S WCI   4
EL DORADO      FAIR      11   7  84 NW6       30.73R WCI   1
DE QUEEN       CLEAR      9   6  88 CALM      30.73F
$$

ARZ056-057-069-170800-
SOUTHEAST ARKANSAS

CITY           SKY/WX    TMP DP  RH WIND       PRES   REMARKS
PINE BLUFF     FAIR      10   2  69 N9        30.72F WCI  -3
STUTTGART      FAIR      10   3  73 N14       30.72F WCI  -6
MONTICELLO     FAIR      12   3  67 N5        30.70F WCI   4

$$






USA.gov is the U.S. government's official web portal to all federal, state and local government web resources and services.